Погода в Туркменбаши

Погода в Туркменбаши : погода сейчас, прогноз погоды и архив. Всё, что Вы хотите узнать о погоде в Туркменбаши!

Поиск расширенной информации на нашем сайте:

Другие новости

Новости СМИ2

Главная страница сайта

Новости сайта

03.07.2017

Напоминаем, что на нашем специализированном сайте Метеоцентр.Азия вы можете получить высокодетализированные автоматические прогнозы погоды по пунктам России, СНГ и мира в авиационном формате (включающие направление и скорость ветра, видимость, явления погоды, количество и форму облачности, нижнюю и верхнюю границу облачности).


Погода в Туркменбаши - сегодня

Время (UTC), дата Ветер
(°,м/с) 
Видим.   Явления Облачность Т
(°С)
Тd
(°С)
f(%) Тe
(°С)
Pmin
(гПа)
dP
(гПа)
Po
(мм)
O2
(г/м3)
Тmin Tmax R s Состояние
почвы
09 15.11.18 100 (В) 20000 м    3/0 верхняя 
[Ci fib]
+12.6 -15.1 13 +12  1023.4  -0.9  760  294           
12 15.11.18 060 (СВ) 20000 м    3/0 верхняя 
[Ci fib]
+14.5 -9 19 +14  1022.9  -0.4  760  291           
15 15.11.18 060 (СВ) 4000 м    3/0 верхняя 
[Ci fib]
+7.5 -15.1 18 +6  1024.2  760  299    +15       
18 15.11.18 080 (В) 4000 м    3/0 верхняя 
[Ci fib]
+5.1 -16.5 19 +4  1024.8  0.5  761  302    +15       
21 15.11.18 070 (В) 4000 м    ясно 
+3.5 -10.7 35 +3  1024.8  761  304           
00 16.11.18 тихо () -3  4000 м    ясно 
+2.2 -8.8 44 +2  1024.8  761  305    +0.1       
03 16.11.18 080 (В) 10 км    5/0 верхняя 
[Ci fib]
+2.6 -8.7 43 +1  1023.6  -1.2  760  304           
06 16.11.18 070 (В) 20000 м    9/0 средняя, верхняя 
[Ac trans|Ci fib]
+8 -9.8 27 +6  1023.6  0.2  760  298  +1.9         
09 16.11.18 060 (СВ) 20000 м    9/0 средняя, верхняя 
[Ac trans|Ci fib]
+14.8 -10.7 16 +15  1021.6  -1.7  759  291           
12 16.11.18 070 (В) 20000 м    10/0 средняя, верхняя 
[Ac trans|Ci sp]
+14.2 -9.8 18 +13  1021.6  759  292           
15 16.11.18 070 (В) 4000 м    10/0 средняя, верхняя 
[Ac trans|Ci sp]
+11.4 -8.2 24 +10  1022  0.2  759  294    +15.2       
18 16.11.18 110 (В) 5-4  4000 м    5/0 верхняя 
[Ci fib]
+9.2 -5.4 35 +8  1023.7  1.2  760  297    +15.2       
21 16.11.18 090 (В) 4000 м    5/0 верхняя 
[Ci fib]
+7 -6.7 37 +6  1023.3  -0.1  760  299           
00 17.11.18 тихо ()   4000 м    5/0 верхняя 
[Ci fib]
+1.9 -10.4 40 +2  1023.4  760  305           
03 17.11.18 тихо ()   10 км    3/0 верхняя 
[Ci fib]
+3.6 -7 46 +4  1023.7  0.3  760  303           
06 17.11.18 тихо ()   20000 м    8/0 верхняя 
[Ci fib]
+10.2 -7.4 28 +10  1024  0.6  760  296  +1.9         
09 17.11.18 180 (Ю) 20000 м    9/0 верхняя 
[Ci fib]
+12.2 -1.9 37 +12  1023.6  -0.4  760  293           
12 17.11.18 тихо ()   20000 м    10/0 верхняя 
[Ci fib]
+13.8 +0 39 +14  1023  -0.5  760  291           
15 17.11.18 тихо ()   4000 м    8/0 верхняя 
[Ci fib]
+9 -0.7 51 +9  1023.7  0.5  760  297    +14       
18 17.11.18 тихо ()   4000 м    4/0 верхняя 
[Ci fib]
+2.8 -2.4 69 +3  1024  0.1  760  303    +14       
21 17.11.18 тихо ()   4000 м    ясно 
+4 +0.9 80 +4  1024  760  302           
00 18.11.18 180 (Ю) 4000 м    10/6 1200 м средняя 
[Sc|Ac As]
+9.8 +4.5 70 +9  1023.7  760  295           
03 18.11.18 160 (Ю) 4000 м    10/6 700 м средняя 
[Sc|Ac As]
+9.2 -1.2 48 +8  1023.6  -0.2  760  296  +2.1         
06 18.11.18 140 (ЮВ) 20000 м    10/10 660 м 
[Sc]
+9.6 -4.1 38 +10  1024.4  0.9  761  297  +2.1         
09 18.11.18 290 (З) 20000 м    10/10 420 м 
[Sc]
+11 -2.2 40 +11  1023.8  -0.6  760  295           
Время (UTC), дата Ветер
(°,м/с) 
Видим.   Явления Облачность Т
(°С)
Тd
(°С)
f(%) Тe
(°С)
Pmin
(гПа)
dP
(гПа)
Po
(мм)
O2
(г/м3)
Тmin Tmax R s Состояние
почвы

Для получения пояснительной информации подведите курсор к названию столбца.

ПОГОДА в Туркменбаши - архив

Всё, что Вы хотите узнать о погоде в Туркменбаши - удобно и подробно!

Выберите нужную дату (начиная с 1 января 2015* года) и нажмите кнопку "Найти".
Будут отображены архивные сводки погоды по пункту Туркменбаши, начиная с указанной даты.


Отображать данные в формате CSV (для использования в таблицах Excel)


Внимание! Наш архив погоды предназначен исключительно для личного некоммерческого использования в познавательных целях. Если Вам необходимы официальные справки о состоянии погоды (для производственных, юридических, коммерческих и т.п. целей), обращайтесь в органы Росгидромета.

*Примечание: данная дата относится к архиву по метеостанциям СССР (Россия, СНГ, Балтия).
Архив по метеостанциям Зарубежной Европы и Азии (кроме Китая) хранится 10 дней, по другим регионам земного шара (Китай, Африка, Америка, Австралия, Океания) - 1 день.

Туркменбаши - район местоположения метеостанции


Название, широта, долгота, высота метеостанции:
Туркменбаши (Красноводск) 40.1°ш. 53°д. -13 м над ур. моря [Туркменистан]

Дополнительная информация

В oтличие oт бoльшинства пoгoдных сайтoв мы публикуем пoдрoбную метеoинфoрмацию в детальнoм прoфессиoнальнoм фoрмате.

Характеристики температуры и влажнoсти вoздуха измеряются на высoте 2 м в тени вдали oт зданий и деревьев.
Скoрoсть ветра измеряется на высoте 10 м (на урoвне рoста челoвека скoрoсть ветра ниже в 1.5-2 раза). Если метеoстанция нахoдится в гoрoде или в лесу, тo скoрoсть ветра занижена на 2-4 м/с пo сравнению с oткрытым местoм. Скoрoсть ветра над акватoриями крупных рек и oзёр, а также на вершинах хoлмoв на 2-5 м/с выше, чем в oбычных услoвиях.
Атмoсфернoе давление в разных тoчках местнoсти мoжет значительнo oтличаться oт давления на метеoстанции, в зависимoсти oт услoвий рельефа (при пoдъёме на 10 м давление пoнижается примернo на 1 мм рт.ст.).